Location: Charlottesville
(38.0290°N, 78.4770°W)
Time: 07:49:03
(UTC-04:00)

N. Korean satellite - Pass Details

Date: 15 October 2017
Orbit: 459 x 517 km, 97.2° (Epoch: 22 October)

Event Time Altitude Azimuth Distance (km) Brightness Sun altitude
Rises 18:58:40 0° 155° (SSE) 2,547 10.0 -5.3°
Reaches altitude 10° 19:00:47 10° 149° (SSE) 1,661 9.0 -5.7°
Maximum altitude 19:04:13 47° 75° (ENE) 646 6.8 -6.4°
Drops below altitude 10° 19:07:37 10° 1° (N) 1,643 9.2 -7.0°
Sets 19:09:42 0° 355° (N) 2,516 10.2 -7.4°
